Location: Unspecified
(49.2170°N, 0.0000°E)
Time: 15:30:36
(UTC+00:00)

Transit 2A - Pass Details

Date: 19 June 2019
Orbit: 594 x 965 km, 66.7° (Epoch: 17 July)

Event Time Altitude Azimuth Distance (km) Brightness Sun altitude
Exits shadow 02:09:29 12° 236° (SW) 2,540 8.1 -12.0°
Maximum altitude 02:15:17 56° 313° (NW) 1,131 6.9 -11.5°
Drops below altitude 10° 02:21:24 10° 31° (NNE) 2,632 10.4 -10.9°
Sets 02:23:56 0° 36° (NE) 3,538 11.7 -10.7°
